Martinsburg, WV

10:31 PM EST on November 20, 2019 (GMT -0500)
Eastern W Va Regional-Shepherd

Weather History for KMRB - September, 2019

Change the Weather History Date:

Friday, September 27, 2019

  Actual Average Record
Temperature  
Mean Temperature 64 °F 61 °F  
Max Temperature 80 °F 72 °F 96 °F (1930)
Min Temperature 48 °F 49 °F 30 °F (1947)
Degree Days  
Heating Degree Days 1 5  
Month to date heating degree days 11 67  
Since 1 July heating degree days 12 74  
Cooling Degree Days 0 1  
Month to date cooling degree days 144 90  
Year to date cooling degree days 1195 882  
Growing Degree Days 14 (Base 50)    
Moisture  
Dew Point 53 °F    
Average Humidity 67    
Maximum Humidity 96    
Minimum Humidity 42    
Precipitation  
Precipitation 0.00 in 0.12 in 1.46 in (2018)
Month to date precipitation 0.80 3.21  
Year to date precipitation 34.32 29.45  
Sea Level Pressure  
Sea Level Pressure 30.07 in    
Wind  
Wind Speed 3 mph ()    
Max Wind Speed 14 mph    
Max Gust Speed 20 mph    
Visibility 10.0 miles    
Events      
T = Trace of Precipitation, MM = Missing Value Source: Averaged Metar Reports

Daily Weather History Graph

Daily Weather History Graph

Search for Another Location

Airport or City:

Astronomy

Sep. 27, 2019 Rise Set
Actual Time 7:04 AM EDT 7:01 PM EDT
Civil Twilight 6:37 AM EDT 7:27 PM EDT
Nautical Twilight 6:06 AM EDT 7:59 PM EDT
Astronomical Twilight 5:34 AM EDT 8:30 PM EDT
Moon 5:23 AM EDT (9/27) 6:50 PM EDT (9/27)
Length of Visible Light 12h 50m
Length of Day
11h 57m
Waning Crescent, 2% of the Moon is Illuminated
Sep 27
Waning Crescent
Sep 28
New
Oct 5
First Quarter
Oct 13
Full
Oct 21
Last Quarter

Hourly Weather History & Observations

Time (EDT) Temp. Heat Index Dew Point Humidity Pressure Visibility Wind Dir Wind Speed Gust Speed Precip Events Conditions
12:53 AM 57.9 °F - 51.1 °F 78% 29.99 in 10.0 mi ENE 3.5 mph - N/A   Clear
1:53 AM 57.0 °F - 50.0 °F 77% 30.01 in 10.0 mi Calm Calm - N/A   Clear
2:53 AM 53.1 °F - 50.0 °F 89% 30.02 in 10.0 mi Calm Calm - N/A   Clear
3:53 AM 53.1 °F - 48.9 °F 86% 30.03 in 10.0 mi Calm Calm - N/A   Clear
4:53 AM 50.0 °F - 48.0 °F 93% 30.04 in 10.0 mi Calm Calm - N/A   Clear
5:53 AM 48.9 °F - 46.9 °F 93% 30.06 in 10.0 mi Calm Calm - N/A   Clear
6:53 AM 48.9 °F - 46.9 °F 93% 30.09 in 10.0 mi NW 3.5 mph - N/A   Clear
7:53 AM 52.0 °F - 50.0 °F 93% 30.10 in 10.0 mi Calm Calm - N/A   Clear
8:53 AM 57.9 °F - 52.0 °F 81% 30.13 in 10.0 mi Calm Calm - N/A   Clear
9:53 AM 64.9 °F - 51.1 °F 61% 30.14 in 10.0 mi NE 3.5 mph - N/A   Clear
10:53 AM 68.0 °F - 50.0 °F 52% 30.14 in 10.0 mi East 4.6 mph - N/A   Clear
11:53 AM 72.0 °F - 53.1 °F 51% 30.14 in 10.0 mi North - - N/A   Clear
12:53 PM 75.0 °F - 53.1 °F 46% 30.11 in 10.0 mi SE 10.4 mph - N/A   Clear
1:53 PM 78.1 °F - 53.1 °F 42% 30.07 in 10.0 mi South 9.2 mph - N/A   Clear
2:53 PM 79.0 °F - 54.0 °F 42% 30.05 in 10.0 mi SSE 11.5 mph - N/A   Clear
3:53 PM 80.1 °F 80.2 °F 55.9 °F 43% 30.03 in 10.0 mi SSE 11.5 mph - N/A   Partly Cloudy
4:53 PM 78.1 °F - 55.9 °F 46% 30.03 in 10.0 mi South 8.1 mph - N/A   Clear
5:53 PM 79.0 °F - 55.9 °F 45% 30.04 in 10.0 mi SE 8.1 mph - N/A   Clear
6:53 PM 75.0 °F - 57.0 °F 53% 30.04 in 10.0 mi SSE 5.8 mph - N/A   Clear
7:53 PM 71.1 °F - 57.9 °F 63% 30.06 in 10.0 mi SE 5.8 mph - N/A   Clear
8:53 PM 70.0 °F - 57.9 °F 65% 30.07 in 10.0 mi SSE 5.8 mph - N/A   Clear
9:53 PM 71.1 °F - 59.0 °F 66% 30.06 in 10.0 mi South 5.8 mph - N/A   Clear
10:53 PM 69.1 °F - 59.0 °F 70% 30.06 in 10.0 mi SSE 3.5 mph - N/A   Clear
11:53 PM 66.0 °F - 59.0 °F 78% 30.06 in 10.0 mi SE 3.5 mph - N/A   Clear